Location: Huntsville
(34.7300°N, 86.5860°W)
Time: 14:43:45
(UTC-05:00)

Envisat - Visible Passes

Search period start: 01 October 2023 00:00
Search period end: 11 October 2023 00:00
Orbit: 763 x 764 km, 98.2° (Epoch: 01 October)

Date Brightness Start Highest point End Pass type
(mag) Time Alt. Az. Time Alt. Az. Time Alt. Az.
01 Oct 3.6 04:07:03 10° NNE 04:11:24 54° ENE 04:11:24 54° ENE visible
01 Oct 4.6 05:47:53 10° NNW 05:50:30 14° WNW 05:51:34 13° WNW visible
02 Oct 5.1 03:30:39 10° NE 03:33:38 22° ENE 03:33:38 22° ENE visible
02 Oct 3.7 05:09:11 10° N 05:13:40 32° WNW 05:13:48 32° WNW visible
03 Oct 3.0 04:31:34 10° N 04:36:02 67° NNW 04:36:02 67° NNW visible
04 Oct 4.3 03:54:35 10° NNE 03:58:16 37° ENE 03:58:16 37° ENE visible
04 Oct 4.3 05:34:34 10° NNW 05:38:02 19° WNW 05:38:25 19° WNW visible
05 Oct 5.6 03:18:35 10° NE 03:20:29 16° ENE 03:20:29 16° ENE visible
05 Oct 3.4 04:56:21 10° N 05:00:38 42° WNW 05:00:38 42° WNW visible
06 Oct 3.5 04:18:57 10° NNE 04:22:52 54° NNE 04:22:52 54° NNE visible
06 Oct 4.9 06:01:22 10° NW 06:02:17 10° WNW 06:03:02 10° WNW visible
07 Oct 4.9 03:42:13 10° NE 03:45:05 26° ENE 03:45:05 26° ENE visible
07 Oct 4.1 05:21:29 10° NNW 05:25:15 24° WNW 05:25:15 24° WNW visible
08 Oct 6.0 03:06:54 10° ENE 03:07:19 11° ENE 03:07:19 11° ENE visible
08 Oct 3.4 04:43:35 10° N 04:47:28 47° NNW 04:47:28 47° NNW visible
09 Oct 4.2 04:06:23 10° NNE 04:09:41 38° NE 04:09:41 38° NE visible
09 Oct 4.6 05:47:13 10° NNW 05:49:50 14° WNW 05:49:50 14° WNW visible
10 Oct 5.4 03:29:58 10° NE 03:31:54 18° ENE 03:31:54 18° ENE visible
10 Oct 3.9 05:08:32 10° N 05:12:04 30° NW 05:12:04 30° NW visible
